Hourly Weather Ovsevevo

Today, 6 May, Thursday

Time Temperature Precipitation Wind Pressure Humidity
00:00 +5°C° 0 mm 2 mps 741 mmHg 97%
01:00 +5°C° 0 mm 2 mps 741 mmHg 97%
02:00 +5°C° 0 mm 2 mps 740 mmHg 97%
03:00 +6°C° 0 mm 2 mps 740 mmHg 97%
04:00 +7°C° 0 mm 3 mps 739 mmHg 96%
05:00 +8°C° 0 mm 3 mps 739 mmHg 95%
06:00 +8°C° 0 mm 4 mps 738 mmHg 91%
07:00 +10°C° 0 mm 4 mps 738 mmHg 87%
08:00 +12°C° 0 mm 4 mps 738 mmHg 83%
09:00 +13°C° 0 mm 5 mps 737 mmHg 78%
10:00 +14°C° 0 mm 6 mps 737 mmHg 72%
11:00 +16°C° 0 mm 7 mps 736 mmHg 67%
12:00 +16°C° 0.3 mm 7 mps 736 mmHg 67%
13:00 +15°C° 0.3 mm 7 mps 736 mmHg 67%
14:00 +15°C° 0.3 mm 7 mps 735 mmHg 66%
15:00 +12°C° 0.8 mm 7 mps 736 mmHg 74%
16:00 +10°C° 0.8 mm 7 mps 736 mmHg 81%
17:00 +8°C° 0.8 mm 7 mps 736 mmHg 88%
18:00 +8°C° 0 mm 6 mps 737 mmHg 88%
19:00 +7°C° 0 mm 5 mps 738 mmHg 87%
20:00 +6°C° 0 mm 5 mps 739 mmHg 86%
21:00 +6°C° 0 mm 4 mps 739 mmHg 88%
22:00 +5°C° 0 mm 4 mps 739 mmHg 90%
23:00 +4°C° 0 mm 4 mps 740 mmHg 92%

Tomorrow, 7 May, Friday

Time Temperature Precipitation Wind Pressure Humidity
00:00 +4°C° 0 mm 4 mps 740 mmHg 91%
01:00 +4°C° 0 mm 4 mps 740 mmHg 90%
02:00 +4°C° 0 mm 4 mps 741 mmHg 89%
03:00 +4°C° 0 mm 4 mps 741 mmHg 88%
04:00 +4°C° 0 mm 4 mps 741 mmHg 88%
05:00 +4°C° 0 mm 3 mps 742 mmHg 87%
06:00 +5°C° 0 mm 4 mps 742 mmHg 80%
07:00 +6°C° 0 mm 4 mps 742 mmHg 73%
08:00 +7°C° 0 mm 4 mps 743 mmHg 66%
09:00 +8°C° 0 mm 5 mps 743 mmHg 59%
10:00 +9°C° 0 mm 5 mps 743 mmHg 51%
11:00 +12°C° 0 mm 5 mps 743 mmHg 44%
12:00 +11°C° 0.2 mm 6 mps 743 mmHg 49%
13:00 +11°C° 0.2 mm 6 mps 743 mmHg 54%
14:00 +10°C° 0.2 mm 6 mps 743 mmHg 60%
15:00 +10°C° 0.2 mm 5 mps 743 mmHg 63%
16:00 +10°C° 0.2 mm 5 mps 743 mmHg 67%
17:00 +11°C° 0.2 mm 4 mps 743 mmHg 70%
18:00 +10°C° 0.1 mm 4 mps 744 mmHg 75%
19:00 +9°C° 0.1 mm 3 mps 744 mmHg 81%
20:00 +8°C° 0.1 mm 3 mps 744 mmHg 86%
21:00 +7°C° 0 mm 3 mps 744 mmHg 87%
22:00 +7°C° 0 mm 2 mps 743 mmHg 89%
23:00 +7°C° 0 mm 2 mps 743 mmHg 90%

Day after tomorrow, 8 May, Saturday

Time Temperature Precipitation Wind Pressure Humidity
00:00 +7°C° 0 mm 3 mps 743 mmHg 87%
01:00 +6°C° 0 mm 4 mps 742 mmHg 85%
02:00 +7°C° 0 mm 4 mps 742 mmHg 82%
03:00 +7°C° 0.8 mm 5 mps 741 mmHg 85%
04:00 +5°C° 0.8 mm 6 mps 741 mmHg 87%
05:00 +5°C° 0.8 mm 6 mps 741 mmHg 90%
06:00 +5°C° 1.3 mm 6 mps 740 mmHg 91%
07:00 +5°C° 1.3 mm 6 mps 740 mmHg 92%
08:00 +6°C° 1.3 mm 5 mps 740 mmHg 93%
09:00 +6°C° 0.5 mm 5 mps 740 mmHg 93%
10:00 +6°C° 0.5 mm 5 mps 739 mmHg 94%
11:00 +6°C° 0.5 mm 5 mps 739 mmHg 94%
12:00 +7°C° 0.2 mm 4 mps 738 mmHg 94%
13:00 +7°C° 0.2 mm 4 mps 738 mmHg 95%
14:00 +7°C° 0.2 mm 4 mps 737 mmHg 95%
15:00 +7°C° 0.5 mm 4 mps 737 mmHg 96%
16:00 +8°C° 0.5 mm 3 mps 736 mmHg 97%
17:00 +8°C° 0.5 mm 3 mps 736 mmHg 97%
18:00 +8°C° 0.7 mm 3 mps 736 mmHg 96%
19:00 +8°C° 0.7 mm 3 mps 736 mmHg 95%
20:00 +6°C° 0.7 mm 4 mps 736 mmHg 94%
21:00 +6°C° 0.2 mm 4 mps 736 mmHg 94%
22:00 +5°C° 0.2 mm 5 mps 736 mmHg 93%
23:00 +3°C° 0.2 mm 5 mps 737 mmHg 93%

9 May, Sunday

Time Temperature Precipitation Wind Pressure Humidity
00:00 +2°C° 0.8 mm 5 mps 737 mmHg 94%
01:00 +2°C° 0.8 mm 6 mps 738 mmHg 95%
02:00 +1°C° 0.8 mm 6 mps 739 mmHg 96%
03:00 +2°C° 0.3 mm 6 mps 740 mmHg 95%
04:00 +2°C° 0.3 mm 6 mps 741 mmHg 94%
05:00 +2°C° 0.3 mm 6 mps 741 mmHg 93%
06:00 +2°C° 0 mm 6 mps 743 mmHg 91%
07:00 +2°C° 0 mm 6 mps 744 mmHg 89%
08:00 +3°C° 0 mm 5 mps 745 mmHg 87%
09:00 +5°C° 0 mm 5 mps 746 mmHg 77%
10:00 +7°C° 0 mm 5 mps 747 mmHg 67%
11:00 +8°C° 0 mm 6 mps 748 mmHg 57%
12:00 +9°C° 0 mm 5 mps 748 mmHg 54%
13:00 +9°C° 0 mm 5 mps 749 mmHg 50%
14:00 +10°C° 0 mm 5 mps 750 mmHg 47%
15:00 +11°C° 0 mm 4 mps 750 mmHg 48%
16:00 +11°C° 0 mm 3 mps 751 mmHg 49%
17:00 +11°C° 0 mm 3 mps 751 mmHg 50%
18:00 +9°C° 0 mm 2 mps 752 mmHg 56%
19:00 +7°C° 0 mm 2 mps 753 mmHg 62%
20:00 +5°C° 0 mm 2 mps 753 mmHg 68%
21:00 +5°C° 0 mm 2 mps 754 mmHg 68%
22:00 +4°C° 0 mm 2 mps 754 mmHg 69%
23:00 +4°C° 0 mm 2 mps 755 mmHg 69%

10 May, Monday

Time Temperature Precipitation Wind Pressure Humidity
00:00 +3°C° 0 mm 2 mps 756 mmHg 71%
01:00 +3°C° 0 mm 2 mps 756 mmHg 74%
02:00 +3°C° 0 mm 2 mps 757 mmHg 76%
03:00 +3°C° 0 mm 2 mps 757 mmHg 76%
04:00 +4°C° 0 mm 2 mps 757 mmHg 77%
05:00 +4°C° 0 mm 2 mps 758 mmHg 77%
06:00 +6°C° 0 mm 2 mps 758 mmHg 70%
07:00 +8°C° 0 mm 2 mps 758 mmHg 62%
08:00 +10°C° 0 mm 3 mps 758 mmHg 55%
09:00 +11°C° 0 mm 3 mps 758 mmHg 51%
10:00 +13°C° 0 mm 4 mps 758 mmHg 47%
11:00 +14°C° 0 mm 4 mps 758 mmHg 44%
12:00 +15°C° 0 mm 4 mps 758 mmHg 44%
13:00 +16°C° 0 mm 3 mps 758 mmHg 44%
14:00 +17°C° 0 mm 3 mps 758 mmHg 45%
15:00 +16°C° 0 mm 3 mps 758 mmHg 48%
16:00 +16°C° 0 mm 3 mps 758 mmHg 52%
17:00 +16°C° 0 mm 2 mps 758 mmHg 56%
18:00 +14°C° 0 mm 2 mps 758 mmHg 63%
19:00 +12°C° 0 mm 2 mps 758 mmHg 71%
20:00 +9°C° 0 mm 2 mps 758 mmHg 78%
21:00 +9°C° 0 mm 2 mps 759 mmHg 80%
22:00 +8°C° 0 mm 2 mps 759 mmHg 81%
23:00 +7°C° 0 mm 2 mps 759 mmHg 83%

11 May, Tuesday

Time Temperature Precipitation Wind Pressure Humidity
00:00 +7°C° 0 mm 2 mps 759 mmHg 84%
01:00 +7°C° 0 mm 2 mps 759 mmHg 85%
02:00 +6°C° 0 mm 2 mps 759 mmHg 86%
03:00 +7°C° 0 mm 2 mps 759 mmHg 84%
04:00 +7°C° 0 mm 2 mps 760 mmHg 82%
05:00 +8°C° 0 mm 1 mps 760 mmHg 81%
06:00 +9°C° 0 mm 2 mps 760 mmHg 72%
07:00 +13°C° 0 mm 2 mps 760 mmHg 64%
08:00 +15°C° 0 mm 2 mps 760 mmHg 56%
09:00 +16°C° 0 mm 2 mps 760 mmHg 52%
10:00 +17°C° 0 mm 2 mps 760 mmHg 48%
11:00 +18°C° 0 mm 2 mps 760 mmHg 43%
12:00 +19°C° 0 mm 2 mps 759 mmHg 42%
13:00 +19°C° 0 mm 2 mps 759 mmHg 42%
14:00 +20°C° 0 mm 2 mps 759 mmHg 41%
15:00 +21°C° 0 mm 1 mps 759 mmHg 45%
16:00 +20°C° 0 mm 1 mps 759 mmHg 49%
17:00 +20°C° 0 mm 1 mps 759 mmHg 52%
18:00 +18°C° 0 mm 1 mps 758 mmHg 58%
19:00 +15°C° 0 mm 2 mps 758 mmHg 64%
20:00 +13°C° 0 mm 2 mps 758 mmHg 70%
21:00 +12°C° 0 mm 2 mps 758 mmHg 72%
22:00 +10°C° 0 mm 2 mps 759 mmHg 74%
23:00 +10°C° 0 mm 1 mps 759 mmHg 76%
Show more

We Need Your Consent

Meteoprog and our Service Providers may store and access personal data such as cookies, device identifiers or other similar technologies on your device and process such data to personalise content and ads, as well as provide social media features and to analyse the traffic.

  • Store and/or access information on your device

    Cookies, device identifiers or other information can be stored or accessed on your device for the purposes indicated above.

  • Personalised ads and content, ad and content measurement, audience insights, and products development

    Ads and content can be personalised based on a profile. More data can be added to better personalise ads and content. Ad and content performance can be measured. Insights about the audience who saw the ads and content can be derived. Such data can be used to develop or improve user’s experience, systems and software.

By clicking ‘I Agree’ you will allow the use of indicated cookies, device identifiers, web beacons or other similar technologies. Your settings can be changed in the browser on your device.

For certain purposes, legitimate interests may be relied on, rather than consent. You can read more about this in our Privacy and Cookie Policy.